• Processing (Info)

  • MPEC 2023-Q38 : 2023 QV

    The following Minor Planet Electronic Circular may be linked-to from your own Web pages, but must not otherwise be redistributed electronically.

    A form allowing access to any MPEC is at the bottom of this page.


    Read MPEC 2023-Q37 Read MPEC 2023-Q39


    M.P.E.C. 2023-Q38                               Issued 2023 August 20, 13:01 UT
    
         The Minor Planet Electronic Circulars contain information on unusual
             minor planets, routine data on comets and natural satellites,
             and occasional editorial announcements.  They are published
        on behalf of Division F of the International Astronomical Union by the
              Minor Planet Center, Smithsonian Astrophysical Observatory,
                              Cambridge, MA 02138, U.S.A.
    			  
                 Prepared using the Tamkin Foundation Computer Network
    
                                  MPC@CFA.HARVARD.EDU
                URL https://www.minorplanetcenter.net/    ISSN 1523-6714
    
                                     2023 QV                                 
    
    
    Observations:
         K23Q00V* C2023 08 18.30230120 45 59.157-19 58 03.67         20.84wXEQ038F51
         K23Q00V  C2023 08 18.31196120 46 00.918-19 57 04.92         21.26wXEQ038F51
         K23Q00V  C2023 08 18.32161020 46 02.619-19 56 06.09         21.23wXEQ038F51
         K23Q00V  C2023 08 18.33127820 46 04.356-19 55 07.04         20.90wXEQ038F51
         K23Q00V  C2023 08 18.44649920 46 24.510-19 43 20.05         20.51GVEQ038F51
         K23Q00V  C2023 08 18.44713920 46 24.628-19 43 15.90         20.59GVEQ038F51
         K23Q00V 3C2023 08 19.33139220 49 22.059-18 17 03.92         20.47GVEQ038T14
         K23Q00V 3C2023 08 19.33237020 49 22.214-18 16 58.48         20.49GVEQ038T14
         K23Q00V 3C2023 08 19.33336020 49 22.371-18 16 53.00         20.48GVEQ038T14
         K23Q00V KB2023 08 19.88523820 51 02.91 -17 27 01.6          20.3 GVEQ038I93
         K23Q00V KB2023 08 19.90169520 51 05.46 -17 25 34.6          20.5 GVEQ038I93
         K23Q00V IC2023 08 19.95436620 51 12.67 -17 20 58.3          19.9 GVEQ038L01
         K23Q00V bC2023 08 19.95950720 51 13.39 -17 20 31.1          20.4 GVEQ038L01
         K23Q00V bC2023 08 19.96464720 51 14.18 -17 20 04.5          19.9 GVEQ038L01
         K23Q00V KC2023 08 20.17405120 51 52.39 -17 01 47.0          21.0 VuEQ038H21
         K23Q00V KC2023 08 20.17923420 51 53.15 -17 01 20.6          21.0 VuEQ038H21
    
    Observer details:
    F51 Pan-STARRS 1, Haleakala.  Observers J. Bulger, T. Lowe, P. Minguez, A.
        Schultz, I. Smith, K. Chambers.  Measurers K. Chambers, T. de Boer, J.
        Bulger, J. Fairlamb, H. Gao, M. Huber, C.-C. Lin, T. Lowe, E. Magnier, P.
        Minguez, Y. Ramanjooloo, A. Schultz, I. Smith, R. Wainscoat, R. Weryk, S.
        Chastel.  1.8-m Ritchey-Chretien + CCD.
    H21 Astronomical Research Observatory, Westfield.  Observer R. Holmes.
        Measurers T. Linder, R. Holmes, L. Horn.  0.81-m f/4.0 astrograph + CCD.
    I93 St Pardon de Conques.  Observer F. Losse.  0.40-m f/3.7 reflector + CMO.
    L01 Visnjan Observatory, Tican.  Observer K. Korlevic.  1.0-m f/2.9 reflector
        + CCD.
    T14 Canada-France-Hawaii Telescope, Maunakea.  Observers R. Wainscoat, H.
        Januszewski, T. Burdullis.  Measurers R. Weryk, R. Wainscoat.  3.6-m
        Canada-France-Hawaii Telescope + CCD.
    
    Orbital elements:
    2023 QV                                                  Earth MOID = 0.0495 AU
    Epoch 2023 Sept. 13.0 TT = JDT 2460200.5                Veres                   
    M  34.78969              (2000.0)            P               Q                  
    n   0.44958797     Peri.  300.21481     -0.08700910     +0.99274434             
    a   1.6875615      Node   324.49729     -0.85782838     -0.11702144             
    e   0.4334136      Incl.    8.21635     -0.50651742     +0.02765259             
    P   2.19           H   24.46          G   0.15           U   9                  
    Residuals in seconds of arc
    230818 F51  0.1-  0.0     230819 T14  0.0   0.0     230819 L01  0.5-  0.1-
    230818 F51  0.2+  0.2-    230819 T14  0.0   0.0     230819 L01  0.5-  0.7-
    230818 F51  0.2-  0.3-    230819 T14  0.0   0.0     230820 H21  0.2+  0.1+
    230818 F51  0.0   0.3-    230819 I93  0.7+  1.1+    230820 H21  0.1+  0.2-
    230818 F51  0.3+  0.1-    230819 I93  0.6+  1.3+
    230818 F51  0.3+  0.2+    230819 L01  0.5+  0.0
    
    Ephemeris:
    2023 QV                  a,e,i = 1.69, 0.43, 8                   q = 0.9561
    Date    TT    R. A. (2000) Decl.     Delta      r    Elong.  Phase     V
    2023 07 21    10 51 12.3 -42 11 19   0.1040  0.9931    74.3    99.9    23.2
    ...
    2023 08 05    17 55 20.6 -61 27 10   0.06061 1.0508   125.4    51.9    20.4
    ...
    2023 08 13    20 19 28.9 -31 55 48   0.08231 1.0895   156.8    21.5    20.3
    ...
    2023 08 19    20 48 16.8 -18 47 48   0.1130  1.1213   163.9    14.5    20.8
    2023 08 20    20 51 21.3 -17 15 57   0.1188  1.1268   164.1    14.3    20.9
    2023 08 21    20 54 08.3 -15 52 25   0.1248  1.1323   164.1    14.2    21.0
    ...
    2023 08 27    21 06 45.4 -09 42 38   0.1630  1.1665   161.9    15.7    21.7
    ...
    2023 09 04    21 17 57.6 -05 02 52   0.2198  1.2142   157.1    18.8    22.6
    ...
    2023 09 19    21 34 00.6 -01 01 30   0.3431  1.3076   147.6    24.3    23.9
    
    M. P. C. Staff               (C) Copyright 2023 MPC           M.P.E.C. 2023-Q38
    


    Read MPEC 2023-Q37 Read MPEC 2023-Q39


    MPEC number:

    Enter an MPEC number in one of the following forms:

    • 1997-B01 (the full form)
    • J97B01 (the packed version of the full form)
    • B01 (the abbreviated form)